CAPE
0 3 0 0 0 0 3 2 2 2 1 1 0 0 0 0 0 0 0 0 0 0 0 0 0 0 0 0 0 19 232 280 312 583 348 1099 704 689 763 585 490 583 686 760 513
2 2 0 0 0 1 1 3 2 1 1 1 0 0 0 0 0 0 0 180 38 0 0 0 0 0 0 0 0 0 223 242 173 283 624 1020 656 789 749 744 338 965 1005 900 573
0 0 0 0 0 0 1 1 2 2 1 0 0 0 0 0 0 0 128 107 8 0 0 0 0 0 0 0 0 20 70 35 110 202 887 977 742 746 754 707 443 932 1084 855 703
0 1 0 0 1 0 1 3 2 2 1 0 0 0 0 0 0 0 32 430 0 0 0 0 0 0 0 0 0 0 0 37 261 470 1001 1146 1155 959 732 676 463 891 1152 1118 1100
1 1 1 1 0 1 0 0 3 2 1 0 0 0 0 0 0 0 58 74 0 0 0 0 0 0 0 0 0 0 1 58 59 433 722 1026 1097 1013 911 606 573 1080 1161 1237 1173
0 1 1 1 2 0 0 0 0 2 1 0 0 0 0 0 0 0 0 0 0 0 0 0 0 0 0 0 0 0 0 0 17 356 614 792 1038 875 753 692 841 995 1093 1137 1115
0 0 0 1 2 1 0 1 0 1 0 0 0 0 0 0 0 0 0 0 0 0 0 0 0 0 0 0 0 0 0 0 21 91 320 438 664 1060 869 774 854 828 877 915 996
0 1 1 1 1 0 1 1 1 0 0 0 0 0 0 0 0 0 0 0 0 0 0 0 0 0 0 0 0 0 0 0 0 42 16 311 50 551 844 849 830 811 832 813 851
1 1 1 1 1 0 1 1 0 0 0 0 0 0 0 0 0 0 0 0 0 0 0 0 0 0 0 0 0 0 0 0 0 0 26 149 53 20 734 865 919 912 860 879 937
4 3 1 0 1 0 0 0 0 0 0 0 0 0 0 0 0 0 0 0 0 0 0 0 0 0 0 0 0 0 0 0 0 0 29 55 72 88 669 690 965 1008 1016 1019 988
2 1 0 0 1 1 0 0 0 0 0 0 0 0 0 0 0 0 0 0 0 0 0 0 0 0 0 0 0 0 0 0 0 0 0 24 43 0 820 786 792 991 1069 1122 1195
2 1 0 0 0 0 0 0 0 0 0 0 0 0 0 0 0 0 0 0 0 0 0 0 0 0 0 0 0 0 0 0 0 0 0 0 0 0 296 931 909 946 1014 1109 1079
2 4 1 0 0 0 0 0 0 0 0 0 0 0 0 0 0 0 0 0 0 0 0 0 0 0 0 0 0 0 0 0 0 0 0 0 0 0 0 560 1179 986 806 790 1004
3 2 0 0 0 0 0 0 0 0 0 0 0 0 0 0 0 0 0 0 0 0 0 0 0 0 0 0 0 0 0 0 0 0 0 0 1 0 54 0 175 1154 1232 1138 960
3 1 0 0 0 0 0 0 0 0 0 0 0 0 0 0 0 0 0 0 0 0 0 0 0 0 0 0 0 0 0 0 0 0 0 0 0 0 434 224 307 122 253 625 1109
4 2 0 0 0 0 0 0 0 0 0 0 0 0 0 0 0 0 0 0 0 0 0 0 0 0 0 0 0 0 0 0 0 0 0 0 0 32 711 624 804 1089 1020 235 536
2 0 1 0 0 0 0 0 0 0 0 0 0 0 0 0 0 0 0 0 0 0 0 0 0 0 0 0 0 0 0 0 0 0 0 0 18 422 651 681 1126 1034 870 479 630
0 0 0 0 0 0 0 0 0 0 0 0 0 0 0 0 0 0 0 0 0 0 0 0 0 0 0 0 0 0 0 0 0 0 0 0 153 566 568 1091 1094 731 966 839 817
0 0 0 0 0 0 0 0 0 0 0 0 0 0 0 0 0 0 0 0 0 0 0 0 0 0 0 0 0 0 0 0 0 0 3 115 604 576 1012 1153 1060 841 991 1092 1234
0 0 0 0 0 0 0 0 0 0 0 0 0 0 0 0 0 0 0 0 0 0 0 0 9 0 0 0 0 0 0 0 0 31 88 116 562 996 1441 1262 1118 1141 1388 1431 1434
0 0 0 0 0 0 0 0 0 0 0 0 0 0 0 0 0 0 0 0 0 0 0 0 0 0 0 0 0 0 0 0 0 0 127 193 163 11 1546 1115 1375 1427 1375 1477 1511
0 0 0 0 0 0 0 0 0 0 0 0 0 0 45 0 0 0 0 0 0 0 0 0 0 2 0 0 0 0 0 0 0 0 0 43 210 156 579 933 1443 1373 1112 1089 1163
0 0 0 0 0 0 0 0 0 0 0 0 0 0 0 9 6 0 0 0 0 0 0 0 7 3 0 0 0 0 0 0 0 0 10 30 65 652 1071 1371 1528 1262 1116 780 525
0 0 0 0 0 0 0 0 0 0 0 0 0 0 0 0 0 0 0 0 0 0 0 0 0 0 0 0 0 0 0 0 0 0 0 0 66 904 1123 1311 1436 1192 868 485 143
0 0 0 0 0 0 0 0 0 0 0 0 0 0 0 1 0 0 0 0 0 0 0 0 0 0 0 0 0 0 0 0 0 0 0 0 0 732 1151 1304 1219 966 395 59 19
0 0 0 0 0 0 0 0 0 0 0 0 0 0 0 0 4 0 0 0 0 0 0 0 0 0 0 0 0 0 0 0 0 0 0 0 1 564 1063 1011 739 547 102 10 0
0 0 0 0 0 0 0 0 0 0 0 0 0 0 0 0 0 0 0 0 0 0 0 0 0 0 0 0 0 0 0 0 0 0 78 83 585 847 700 611 643 324 29 0 0
CIN
0 0 0 0 0 0 0 0 0 0 0 0 0 0 0 0 0 0 0 0 0 0 0 0 0 0 0 0 0 -175 -19 -12 -29 -47 -27 -54 -38 -72 -69 -62 -67 -69 -60 -62 -68
0 0 0 0 0 0 0 0 0 0 0 0 0 0 0 0 0 0 0 -554 -464 0 0 0 0 0 0 0 0 0 -29 -19 -33 -42 -37 -56 -54 -61 -63 -74 -94 -62 -61 -62 -67
0 0 0 0 0 0 0 0 0 0 0 0 0 0 0 0 0 0 -502 -570 -334 0 0 0 0 0 0 0 0 -9 -76 -46 -41 -53 -59 -66 -74 -77 -74 -69 -63 -65 -64 -69 -55
0 0 0 0 0 0 0 0 0 0 0 0 0 0 0 0 0 0 -506 -531 0 0 0 0 0 0 0 0 0 0 0 -53 -39 -67 -73 -66 -66 -72 -89 -55 -87 -69 -92 -89 -53
0 0 0 0 0 0 0 0 0 0 0 0 0 0 0 0 0 0 -289 -417 0 0 0 0 0 0 0 0 0 0 -4 -53 -56 -72 -64 -78 -63 -51 -85 -147 -156 -110 -78 -77 -64
0 0 0 0 0 0 0 0 0 0 0 0 0 0 0 0 0 0 0 0 0 0 0 0 0 0 0 0 0 0 0 0 -37 -56 -60 -54 -67 -71 -169 -179 -173 -134 -91 -64 -71
0 0 0 0 0 0 0 0 0 0 0 0 0 0 0 0 0 0 0 0 0 0 0 0 0 0 0 0 0 0 0 0 -41 -64 -45 -63 -66 -66 -189 -186 -161 -138 -100 -79 -83
0 0 0 0 0 0 0 0 0 0 0 0 0 0 0 0 0 0 0 0 0 0 0 0 0 0 0 0 0 0 0 0 0 -86 -73 -42 -11 -132 -252 -200 -158 -160 -139 -128 -115
0 0 0 0 0 0 0 0 0 0 0 0 0 0 0 0 0 0 0 0 0 0 0 0 0 0 0 0 0 0 0 0 0 0 -106 -53 -21 -106 -298 -193 -158 -153 -142 -135 -111
0 0 0 0 0 0 0 0 0 0 0 0 0 0 0 0 0 0 0 0 0 0 0 0 0 0 0 0 0 0 0 0 0 0 -104 -61 -35 -174 -276 -236 -158 -149 -142 -147 -115
0 0 0 0 0 0 0 0 0 0 0 0 0 0 0 0 0 0 0 0 0 0 0 0 0 0 0 0 0 0 0 0 0 0 0 -63 -44 -1 -209 -234 -222 -190 -159 -121 -102
0 0 0 0 0 0 0 0 0 0 0 0 0 0 0 0 0 0 0 0 0 0 0 0 0 0 0 0 0 0 0 0 0 0 0 0 0 0 -207 -187 -189 -200 -174 -151 -124
0 -1 0 0 0 0 0 0 0 0 0 0 0 0 0 0 0 0 0 0 0 0 0 0 0 0 0 0 0 0 0 0 0 0 0 0 0 0 -41 -247 -223 -209 -194 -160 -149
0 0 0 0 0 0 0 0 0 0 0 0 0 0 0 0 0 0 0 0 0 0 0 0 0 0 0 0 0 0 0 0 0 0 0 0 -12 0 -248 0 -193 -172 -164 -143 -161
0 0 0 0 0 0 0 0 0 0 0 0 0 0 0 0 0 0 0 0 0 0 0 0 0 0 0 0 0 0 0 0 0 0 0 0 0 0 -227 -120 -184 -283 -242 -169 -126
0 -1 0 0 0 0 0 0 0 0 0 0 0 0 0 0 0 0 0 0 0 0 0 0 0 0 0 0 0 0 0 0 0 0 0 0 0 -44 -139 -264 -245 -263 -295 -302 -194
-2 -1 0 0 0 0 0 0 0 0 0 0 0 0 0 0 0 0 0 0 0 0 0 0 0 0 0 0 0 0 0 0 0 0 0 0 -84 -90 -255 -311 -309 -366 -367 -356 -305
0 0 0 0 0 0 0 0 0 0 0 0 0 0 0 0 0 0 0 0 0 0 0 0 0 0 0 0 0 0 0 0 0 0 0 0 -53 -83 -294 -314 -358 -431 -412 -405 -379
0 0 0 0 0 0 0 0 0 0 0 0 0 0 0 0 0 0 0 0 0 0 0 0 0 0 0 0 0 0 0 0 0 0 -14 -105 -112 -200 -236 -270 -324 -385 -389 -386 -355
0 0 0 0 0 0 0 0 0 0 0 0 0 0 0 0 0 0 0 0 0 0 0 0 -37 0 0 0 0 0 0 0 0 -38 -19 -74 -72 -31 -134 -239 -304 -322 -307 -305 -290
0 0 0 0 0 0 0 0 0 0 0 0 0 0 0 0 0 0 0 0 0 0 0 0 0 0 0 0 0 0 0 0 0 0 -3 -7 -18 -66 -138 -260 -259 -273 -276 -247 -220
0 0 0 0 0 0 0 0 0 0 0 0 0 0 -132 0 0 0 0 0 0 0 0 0 0 -10 0 0 0 0 0 0 0 0 -1 -43 -16 -450 -264 -251 -232 -248 -269 -271 -247
0 0 0 0 0 0 0 0 0 0 0 0 0 0 0 -122 -91 0 0 0 0 0 0 0 -2 -12 0 0 0 0 0 0 0 0 -95 -39 -28 -375 -291 -221 -177 -213 -224 -279 -329
0 0 0 0 0 0 0 0 0 0 0 0 0 0 0 0 0 0 0 0 0 0 0 0 0 0 0 0 0 0 0 0 0 0 0 0 -116 -263 -234 -194 -150 -169 -222 -291 -381
0 0 0 0 0 0 0 0 0 0 0 0 0 0 0 -130 0 0 0 0 0 0 0 0 0 0 0 0 0 0 0 0 0 0 0 0 0 -132 -180 -145 -126 -140 -247 -322 -354
0 0 0 0 0 0 0 0 0 0 0 0 0 0 0 0 -64 0 0 0 0 0 0 0 0 0 0 0 0 0 0 0 0 0 0 0 -3 -228 -141 -128 -153 -166 -252 -307 0
0 0 0 0 0 0 0 0 0 0 0 0 0 0 0 0 0 0 0 0 0 0 0 0 0 0 0 0 0 0 0 0 0 0 -242 -174 -93 -147 -144 -135 -118 -164 -206 0 0
Wind_Speed
12 12 12 12 13 13 14 14 14 14 14 15 15 15 14 15 15 3 4 3 1 6 2 0 2 2 2 1 1 2 2 2 3 5 1 7 5 4 3 6 4 3 4 10 20
11 12 12 13 13 13 14 15 14 14 15 16 16 16 14 14 4 5 6 3 5 3 3 5 3 2 3 2 2 1 0 3 4 5 2 5 4 7 4 6 3 8 12 20 20
12 12 12 13 13 14 14 14 14 15 15 16 17 16 14 10 4 1 9 6 6 4 1 2 0 2 2 2 3 1 2 2 3 4 6 10 6 5 4 7 8 13 18 19 19
12 12 13 13 13 14 14 14 14 14 15 16 17 17 18 3 1 1 5 5 7 3 2 2 2 2 2 3 1 2 5 3 3 6 7 9 7 4 6 5 3 16 21 21 20
12 13 13 13 13 13 14 14 14 14 15 15 16 16 4 1 6 4 2 6 3 1 1 2 5 2 4 1 2 2 2 2 1 7 6 8 5 2 3 6 14 18 19 20 17
12 13 13 13 13 13 14 14 14 14 14 14 14 16 1 5 3 2 7 3 2 1 3 2 3 1 2 2 2 4 4 5 2 7 6 6 3 4 5 11 15 18 17 15 16
13 13 13 13 13 13 13 14 14 14 13 12 11 4 1 11 3 7 5 2 1 2 3 2 2 3 1 2 6 4 3 2 2 6 4 6 3 8 12 13 14 15 15 14 15
13 14 13 13 13 13 13 14 15 13 11 9 6 2 7 3 4 8 3 3 2 2 3 4 2 2 3 1 3 4 2 4 2 6 2 8 6 5 15 16 15 14 14 14 16
14 14 14 13 12 12 13 15 15 12 7 4 2 1 7 7 3 1 3 2 2 2 1 3 3 4 1 3 2 7 4 5 5 4 2 8 5 5 14 13 14 14 14 14 14
13 12 13 12 11 12 14 13 2 3 2 3 3 4 4 2 2 2 2 2 2 2 2 3 4 2 2 2 2 4 5 5 5 0 4 8 12 4 13 14 14 14 13 13 13
14 13 11 10 9 9 8 3 3 3 2 5 1 3 4 7 3 2 3 5 1 5 3 4 3 4 1 3 1 2 3 8 4 5 6 10 12 6 10 13 13 13 14 14 16
14 13 10 9 7 6 3 3 1 3 5 7 6 7 6 3 0 2 4 5 2 4 2 3 8 2 2 4 5 3 5 3 7 3 6 4 9 4 9 13 16 16 16 15 11
14 10 9 7 5 2 3 3 2 2 3 1 4 4 1 7 4 9 7 4 4 5 4 4 2 2 2 4 5 5 4 3 6 5 1 4 1 4 1 9 11 14 14 14 14
13 10 8 5 3 2 4 1 6 4 1 2 3 2 5 4 4 2 3 3 2 6 7 4 2 3 2 3 3 4 2 2 2 3 2 5 3 2 7 5 6 10 12 12 13
14 10 5 3 1 4 3 6 5 4 4 4 4 2 1 2 6 3 1 3 4 4 5 3 4 2 5 2 6 1 2 1 1 3 3 2 4 2 7 5 7 6 4 11 14
10 6 2 3 2 4 5 2 3 3 3 5 4 6 6 1 2 4 4 3 1 3 2 5 0 4 3 2 4 6 2 3 2 1 4 2 4 2 5 7 11 14 13 9 12
10 6 5 2 1 4 3 3 3 3 1 6 5 6 7 5 4 2 7 8 5 3 2 1 4 2 4 4 4 3 3 3 3 3 2 1 4 4 7 8 10 13 11 3 6
10 7 5 4 3 6 3 2 4 1 3 2 4 9 7 5 2 3 7 8 2 1 0 2 5 2 4 5 2 3 4 4 3 2 3 2 3 3 5 5 6 5 5 7 7
0 2 2 3 9 4 2 3 3 3 0 5 5 9 4 4 2 4 7 8 7 12 4 4 2 1 1 2 2 6 4 3 6 1 3 2 1 3 1 6 8 9 10 10 10
2 1 2 3 8 4 1 3 4 3 3 3 5 3 9 7 7 5 6 2 4 8 7 2 2 2 4 3 10 1 8 4 1 4 3 2 4 2 4 6 8 9 10 9 10
2 2 5 4 3 1 3 4 6 6 6 5 4 5 4 6 6 5 5 3 3 4 7 5 2 3 3 6 2 3 4 5 2 2 2 5 4 3 8 7 8 8 9 10 10
1 3 2 3 2 1 3 3 3 4 2 4 2 3 5 6 5 4 6 2 2 6 8 2 2 2 4 2 1 2 3 1 4 5 0 3 3 1 7 8 8 8 10 10 10
2 2 2 3 2 2 2 4 4 4 3 2 2 1 2 4 4 2 2 2 3 1 5 7 1 4 4 4 3 3 3 3 2 2 6 4 3 4 7 10 9 10 9 8 7
1 4 1 2 1 1 1 1 4 3 3 0 2 2 3 4 5 4 3 2 3 4 7 3 4 3 2 2 2 2 2 2 3 4 1 5 2 8 10 13 12 10 8 7 5
3 2 2 3 3 2 1 2 3 2 2 3 4 3 4 4 3 4 2 3 4 4 4 1 3 1 1 2 2 0 4 3 6 5 7 3 6 11 14 14 13 10 8 6 4
1 0 1 2 1 3 2 3 2 1 3 1 4 2 2 4 1 7 6 2 2 3 3 1 4 2 3 3 1 4 5 4 5 4 9 6 5 4 11 11 11 10 7 4 2
2 0 3 1 3 3 3 1 1 1 7 4 6 7 11 5 3 5 4 6 4 1 4 3 7 4 3 1 2 7 4 5 2 3 3 5 2 11 12 13 13 10 8 7 6
Wind_Direction
343 344 340 338 335 335 333 336 337 336 334 332 331 329 327 322 309 212 262 263 207 178 190 211 110 93 145 132 129 115 92 162 185 172 200 147 153 92 79 119 83 64 117 126 144
343 339 337 335 334 332 332 332 335 335 332 332 330 327 327 330 298 273 270 194 187 197 289 357 8 120 106 93 155 218 212 219 168 186 167 157 147 157 159 152 122 94 103 132 146
339 337 336 333 332 330 328 326 330 333 330 330 328 324 324 321 289 4 339 216 235 249 1 340 14 214 105 145 155 172 242 216 183 166 144 154 181 184 180 186 189 168 149 152 156
338 336 334 332 329 326 323 324 329 328 328 327 327 323 321 272 164 164 303 216 229 280 302 330 327 75 70 114 171 267 280 212 77 140 133 160 154 202 215 1 197 159 156 157 166
336 334 331 329 326 323 321 322 324 326 324 324 326 325 325 326 252 30 254 240 248 279 22 4 33 48 66 58 147 268 323 208 81 161 169 149 181 174 181 78 123 141 159 170 170
333 331 329 327 323 320 318 318 318 320 320 321 325 318 294 256 120 30 348 267 253 356 321 355 20 35 93 59 37 326 312 282 237 171 165 166 163 200 112 131 136 150 166 175 177
331 329 327 324 321 318 315 313 312 313 312 315 321 321 235 243 107 319 303 253 268 280 317 350 4 346 10 80 340 329 341 328 148 163 188 171 190 214 143 151 151 165 172 179 187
331 328 326 323 319 314 311 306 305 303 300 302 311 277 252 245 309 284 198 233 250 240 254 326 287 79 17 283 21 19 44 336 61 174 146 201 291 149 159 158 165 174 180 189 196
332 328 325 322 318 314 310 303 299 291 274 274 248 267 263 314 252 279 202 183 309 100 51 79 59 47 49 22 94 30 328 340 335 219 154 206 278 94 169 177 172 182 187 195 199
331 326 324 321 319 320 310 297 272 279 180 193 261 263 243 48 322 115 168 132 50 56 143 59 51 45 81 324 33 356 331 325 283 203 179 217 251 148 180 191 187 189 195 198 202
333 327 323 320 321 327 334 163 191 177 211 222 179 284 290 311 260 143 157 120 42 58 162 43 252 249 203 107 160 141 275 299 254 256 223 219 260 252 186 198 197 201 206 207 211
334 328 322 317 318 315 285 206 119 26 294 226 252 275 265 270 151 124 169 150 152 131 132 175 239 209 190 134 214 211 244 293 292 348 222 174 248 314 191 219 209 200 209 213 208
332 326 320 315 314 259 235 219 37 325 274 268 199 230 190 180 175 168 174 148 121 136 172 193 101 135 226 207 234 203 272 252 268 349 6 312 251 31 72 237 213 216 222 215 206
334 323 315 312 267 161 229 91 304 226 313 165 207 182 159 219 121 124 149 133 140 189 170 236 153 206 147 311 219 268 257 225 249 241 274 339 314 290 344 315 209 229 228 222 210
332 323 306 239 16 205 79 333 116 208 153 152 154 79 147 189 123 144 228 122 169 156 203 118 188 175 321 197 190 22 84 43 130 154 240 58 258 80 0 2 27 4 300 243 218
333 331 239 175 228 265 316 299 217 223 150 161 137 161 153 135 105 118 154 103 84 178 222 255 141 237 228 143 193 138 113 76 97 152 235 20 280 94 7 326 323 330 329 285 211
309 266 200 203 102 330 289 169 203 227 79 155 156 167 167 162 198 129 169 183 215 210 305 272 193 228 206 186 126 174 215 260 194 175 73 301 245 13 339 340 330 331 342 39 173
336 168 219 244 303 330 200 185 219 165 197 120 118 128 175 151 157 135 153 191 177 141 331 282 194 196 155 232 191 174 252 261 296 179 110 166 232 71 346 9 11 22 46 85 110
82 147 243 252 219 286 176 211 257 205 133 150 125 152 135 171 191 181 186 196 209 196 224 186 234 286 245 159 229 148 196 52 117 62 218 10 230 206 100 59 60 60 74 79 84
220 193 40 35 160 209 163 262 261 229 304 192 163 181 171 165 180 196 176 164 186 201 215 177 245 56 116 160 60 297 130 183 162 179 168 163 277 250 172 102 88 81 81 84 89
199 131 22 127 206 162 217 249 273 257 231 200 177 135 137 161 211 181 176 131 189 150 183 162 234 119 244 26 35 155 146 72 101 301 196 166 226 201 167 143 118 102 91 95 92
297 101 96 209 156 4 209 229 306 279 159 238 152 117 143 150 148 185 194 286 17 167 158 167 152 94 72 73 334 29 83 291 268 178 11 302 185 344 186 156 140 122 110 98 92
91 106 144 271 179 187 266 274 271 304 333 359 139 60 69 118 122 135 133 10 3 157 158 171 59 130 147 172 139 55 57 91 77 314 191 237 162 145 153 151 154 140 130 114 95
190 125 122 74 22 133 281 297 290 263 255 297 99 119 125 91 48 125 123 40 52 80 74 69 101 276 271 77 90 170 156 89 290 268 133 249 176 190 182 170 162 152 144 123 107
5 85 2 177 186 199 288 311 293 304 346 8 107 71 117 111 100 117 144 148 94 166 62 55 113 115 91 113 149 13 282 261 249 265 247 303 231 192 188 174 165 153 145 136 109
26 339 100 95 100 176 167 217 265 122 320 306 123 67 64 114 36 174 155 192 144 97 86 57 127 169 208 161 82 270 237 272 245 237 251 265 239 198 166 156 163 161 154 147 126
19 161 289 71 138 191 191 217 158 177 57 54 112 104 76 74 68 72 66 77 60 162 126 155 149 170 254 30 290 256 278 261 212 229 272 228 120 153 159 172 168 169 179 182 180